* Astronomy

Members Login
Username 
 
Password 
    Remember Me  
Post Info TOPIC: NEO 7X4AC36


L

Posts: 131433
Date:
NEO 7X4AC36
Permalink  
 


Close approach of 7X4AC36
Observed by R. McNaught at Uppsala Telescope/Siding Spring Survey
Astrometry:
7X4AC36  C2007 12 14.56193 05 21 16.16 -59 32 19.0          17.8 Rr    
7X4AC36 C2007 12 14.56425 05 21 17.28 -59 33 13.4 17.5 Rr
7X4AC36 C2007 12 14.57116 05 21 20.56 -59 35 50.2 17.7 Rr
7X4AC36 C2007 12 14.57345 05 21 21.64 -59 36 41.8 17.5 Rr
7X4AC36 C2007 12 14.58042 05 21 24.92 -59 39 13.7 17.4 Rr
7X4AC36 C2007 12 14.58263 05 21 25.92 -59 40 01.5 17.7 Rr
7X4AC36 C2007 12 14.58931 05 21 29.04 -59 42 21.9 17.7 Rr
7X4AC36 C2007 12 14.59163 05 21 30.12 -59 43 09.7 17.5 Rr

Orbital elements:
Perihelion 2007 Dec 26.361838 TT
Epoch 2007 Dec 15.0 TT = JDT 2454449.5 Find_Orb
M 349.44194 (2000.0) P Q
n 0.92925567 Peri. 193.80671 -0.07244950 -0.98755030
a 1.0400300 Node 260.48417 0.92798522 -0.01544193
e 0.0541507 Incl. 8.13894 0.36550580 -0.15654373
P 1.06 /387.40d H 26.9 G 0.15 q 0.9837117
From 8 observations 2007 Dec. 14-14 (42.8 min); RMS error 0.226 arcseconds


-- Edited by Blobrana at 09:57, 2007-12-15

__________________
Page 1 of 1  sorted by
 
Quick Reply

Please log in to post quick replies.



Create your own FREE Forum
Report Abuse
Powered by ActiveBoard